User: anonymous   Login
Location: Unspecified
(0.0000°N, 0.0000°E)
Time: 21:45:14
(UTC+00:00)
Language:

COSMOS 2482 - Orbit

View from above orbital plane
View from above orbital plane
View from above satellite
View from above satellite

Ground track
Ground track

The orbit data is extracted from the following two-line orbital elements,

1 39057U 13001A   17117.74129436 +.00000044 +00000-0 +24515-3 0  9990
2 39057 082.4969 136.4819 0028620 103.8371 256.5893 12.42885285194172
Epoch (UTC): 27 April 2017 17:47:27
Eccentricity: 0.0028620
inclination: 82.4969°
perigee height: 1472 km
apogee height: 1517 km
right ascension of ascending node: 136.4819°
argument of perigee: 103.8371°
revolutions per day: 12.42885285
mean anomaly at epoch: 256.5893°
orbit number at epoch: 19417

The dashed part of the orbit path shows where the satellite is in the earth's shadow,  

DLR